Location: Lombard
(41.8800°N, 88.0080°W)
Time: 00:05:45
(UTC-05:00)

Transit 2A - Pass Details

Date: 10 February 2023
Orbit: 591 x 964 km, 66.7° (Epoch: 20 March)

Event Time Altitude Azimuth Distance (km) Brightness Sun altitude
Rises 14:44:12 0° 197° (SSW) 2,961 10.1 23.1°
Reaches altitude 10° 14:46:25 10° 193° (SSW) 2,100 9.5 22.9°
Maximum altitude 14:51:05 58° 115° (ESE) 844 6.5 22.3°
Drops below altitude 10° 14:56:19 10° 37° (NE) 2,349 8.0 21.6°
Sets 14:58:54 0° 34° (NE) 3,347 8.7 21.3°
